Location: Ehrke Reservoir
(40.0279°N, 99.6641°W)
Time: 20:40:23
(UTC+00:00)

Cosmos 2227 Rocket - Pass Details

Date: 20 January 2020
Orbit: 840 x 844 km, 71.0° (Epoch: 25 February)

Event Time Altitude Azimuth Distance (km) Brightness Sun altitude
Exits shadow 10:55:09 36° 128° (SE) 1,297 3.4 -34.5°
Drops below altitude 10° 10:58:33 10° 144° (SE) 2,451 4.9 -33.8°
Sets 11:01:01 0° 148° (SSE) 3,382 5.7 -33.3°
